Time,TemperatureF,DewpointF,PressureIn,WindDirection,WindDirectionDegrees,WindSpeedMPH,WindSpeedGustMPH,Humidity,HourlyPrecipIn,Conditions,Clouds,dailyrainin,SoftwareType,DateUTC
2013-06-21 00:01:00,76.1,62.7,30.35,North,0,0.0,0.0,63,0.00,,,0.00,WUHU216HW,2013-06-21 05:01:00,
2013-06-21 00:06:00,76.1,62.7,30.35,North,0,0.0,0.0,63,0.00,,,0.00,WUHU216HW,2013-06-21 05:06:00,
2013-06-21 00:11:00,76.1,63.1,30.35,North,0,0.0,0.0,64,0.00,,,0.00,WUHU216HW,2013-06-21 05:11:00,
2013-06-21 00:16:00,76.1,62.7,30.35,North,0,0.0,0.0,63,0.00,,,0.00,WUHU216HW,2013-06-21 05:16:00,
2013-06-21 00:21:00,76.1,63.1,30.35,North,0,0.0,0.0,64,0.00,,,0.00,WUHU216HW,2013-06-21 05:21:00,
2013-06-21 00:26:00,76.1,63.1,30.35,North,0,0.0,0.0,64,0.00,,,0.00,WUHU216HW,2013-06-21 05:26:00,
2013-06-21 00:31:00,76.0,62.9,30.35,North,0,0.0,0.0,64,0.00,,,0.00,WUHU216HW,2013-06-21 05:31:00,
2013-06-21 00:36:00,76.0,63.4,30.35,North,0,0.0,0.0,65,0.00,,,0.00,WUHU216HW,2013-06-21 05:36:00,
2013-06-21 00:41:00,75.8,63.2,30.34,North,0,0.0,0.0,65,0.00,,,0.00,WUHU216HW,2013-06-21 05:41:00,
2013-06-21 00:46:00,75.6,63.0,30.34,North,0,0.0,0.0,65,0.00,,,0.00,WUHU216HW,2013-06-21 05:46:00,
2013-06-21 00:51:00,75.6,63.0,30.34,North,0,0.0,0.0,65,0.00,,,0.00,WUHU216HW,2013-06-21 05:51:00,
2013-06-21 00:56:00,75.4,63.3,30.34,North,0,0.0,0.0,66,0.00,,,0.00,WUHU216HW,2013-06-21 05:56:00,
2013-06-21 01:01:00,75.2,63.1,30.34,North,0,0.0,0.0,66,0.00,,,0.00,WUHU216HW,2013-06-21 06:01:00,
2013-06-21 01:06:00,75.1,62.9,30.34,North,0,0.0,0.0,66,0.00,,,0.00,WUHU216HW,2013-06-21 06:06:00,
2013-06-21 01:11:00,74.9,62.7,30.34,North,0,0.0,0.0,66,0.00,,,0.00,WUHU216HW,2013-06-21 06:11:00,
2013-06-21 01:16:00,74.9,62.7,30.34,North,0,0.0,0.0,66,0.00,,,0.00,WUHU216HW,2013-06-21 06:16:00,
2013-06-21 01:21:00,74.5,62.8,30.34,North,0,0.0,0.0,67,0.00,,,0.00,WUHU216HW,2013-06-21 06:21:00,
2013-06-21 01:26:00,74.5,62.8,30.35,North,0,0.0,0.0,67,0.00,,,0.00,WUHU216HW,2013-06-21 06:26:00,
2013-06-21 01:31:00,74.5,62.8,30.35,North,0,0.0,0.0,67,0.00,,,0.00,WUHU216HW,2013-06-21 06:31:00,
2013-06-21 01:36:00,74.5,63.3,30.35,North,0,0.0,0.0,68,0.00,,,0.00,WUHU216HW,2013-06-21 06:36:00,
2013-06-21 01:41:00,74.5,62.8,30.35,North,0,0.0,0.0,67,0.00,,,0.00,WUHU216HW,2013-06-21 06:41:00,
2013-06-21 01:46:00,74.7,63.0,30.35,North,0,0.0,0.0,67,0.00,,,0.00,WUHU216HW,2013-06-21 06:46:00,
2013-06-21 01:51:00,74.7,63.0,30.35,North,0,0.0,0.0,67,0.00,,,0.00,WUHU216HW,2013-06-21 06:51:00,
2013-06-21 01:56:00,74.9,63.6,30.34,North,0,0.0,0.0,68,0.00,,,0.00,WUHU216HW,2013-06-21 06:56:00,
2013-06-21 02:01:00,74.9,63.6,30.34,North,0,0.0,0.0,68,0.00,,,0.00,WUHU216HW,2013-06-21 07:01:00,
2013-06-21 02:06:00,74.9,63.2,30.35,North,0,0.0,0.0,67,0.00,,,0.00,WUHU216HW,2013-06-21 07:06:00,
2013-06-21 02:11:00,74.9,63.2,30.34,North,0,0.0,0.0,67,0.00,,,0.00,WUHU216HW,2013-06-21 07:11:00,
2013-06-21 02:16:00,75.1,63.8,30.34,North,0,0.0,0.0,68,0.00,,,0.00,WUHU216HW,2013-06-21 07:16:00,
2013-06-21 02:21:00,75.2,63.6,30.34,North,0,0.0,0.0,67,0.00,,,0.00,WUHU216HW,2013-06-21 07:21:00,
2013-06-21 02:26:00,75.2,63.6,30.33,North,0,0.0,0.0,67,0.00,,,0.00,WUHU216HW,2013-06-21 07:26:00,
2013-06-21 02:31:00,75.2,63.6,30.34,North,0,0.0,0.0,67,0.00,,,0.00,WUHU216HW,2013-06-21 07:31:00,
2013-06-21 02:36:00,75.4,63.7,30.33,North,0,0.0,0.0,67,0.00,,,0.00,WUHU216HW,2013-06-21 07:36:00,
2013-06-21 02:41:00,75.4,63.7,30.33,North,0,0.0,0.0,67,0.00,,,0.00,WUHU216HW,2013-06-21 07:41:00,
2013-06-21 02:46:00,75.2,63.6,30.33,North,0,0.0,0.0,67,0.00,,,0.00,WUHU216HW,2013-06-21 07:46:00,
2013-06-21 02:51:00,75.2,63.6,30.33,North,0,0.0,0.0,67,0.00,,,0.00,WUHU216HW,2013-06-21 07:51:00,
2013-06-21 02:56:00,75.2,63.6,30.33,North,0,0.0,0.0,67,0.00,,,0.00,WUHU216HW,2013-06-21 07:56:00,
2013-06-21 03:01:00,75.4,63.7,30.33,North,0,0.0,0.0,67,0.00,,,0.00,WUHU216HW,2013-06-21 08:01:00,
2013-06-21 03:06:00,75.4,63.7,30.34,North,0,0.0,0.0,67,0.00,,,0.00,WUHU216HW,2013-06-21 08:06:00,
2013-06-21 03:11:00,75.4,63.7,30.34,North,0,0.0,0.0,67,0.00,,,0.00,WUHU216HW,2013-06-21 08:11:00,
2013-06-21 03:16:00,75.4,63.7,30.34,North,0,0.0,0.0,67,0.00,,,0.00,WUHU216HW,2013-06-21 08:16:00,
2013-06-21 03:21:00,75.2,63.6,30.35,North,0,0.0,0.0,67,0.00,,,0.00,WUHU216HW,2013-06-21 08:21:00,
2013-06-21 03:26:00,75.2,63.6,30.34,North,0,0.0,0.0,67,0.00,,,0.00,WUHU216HW,2013-06-21 08:26:00,
2013-06-21 03:31:00,75.2,63.6,30.34,North,0,0.0,0.0,67,0.00,,,0.00,WUHU216HW,2013-06-21 08:31:00,
2013-06-21 03:36:00,75.1,63.8,30.33,North,0,0.0,0.0,68,0.00,,,0.00,WUHU216HW,2013-06-21 08:36:00,
2013-06-21 03:41:00,75.1,63.8,30.33,North,0,0.0,0.0,68,0.00,,,0.00,WUHU216HW,2013-06-21 08:41:00,
2013-06-21 03:46:00,75.1,63.8,30.32,North,0,0.0,0.0,68,0.00,,,0.00,WUHU216HW,2013-06-21 08:46:00,
2013-06-21 03:51:00,75.2,63.6,30.32,North,0,0.0,0.0,67,0.00,,,0.00,WUHU216HW,2013-06-21 08:51:00,
2013-06-21 03:56:00,75.2,63.6,30.32,North,0,0.0,0.0,67,0.00,,,0.00,WUHU216HW,2013-06-21 08:56:00,
2013-06-21 04:01:00,75.2,63.6,30.32,North,0,0.0,0.0,67,0.00,,,0.00,WUHU216HW,2013-06-21 09:01:00,
2013-06-21 04:06:00,75.2,63.6,30.32,North,0,0.0,0.0,67,0.00,,,0.00,WUHU216HW,2013-06-21 09:06:00,
2013-06-21 04:11:00,75.2,63.6,30.32,North,0,0.0,0.0,67,0.00,,,0.00,WUHU216HW,2013-06-21 09:11:00,
2013-06-21 04:16:00,75.2,63.6,30.32,North,0,0.0,0.0,67,0.00,,,0.00,WUHU216HW,2013-06-21 09:16:00,
2013-06-21 04:21:00,75.2,63.6,30.33,North,0,0.0,0.0,67,0.00,,,0.00,WUHU216HW,2013-06-21 09:21:00,
2013-06-21 04:26:00,75.2,63.6,30.32,North,0,0.0,0.0,67,0.00,,,0.00,WUHU216HW,2013-06-21 09:26:00,
2013-06-21 04:31:00,75.1,63.8,30.33,North,0,0.0,0.0,68,0.00,,,0.00,WUHU216HW,2013-06-21 09:31:00,
2013-06-21 04:36:00,75.1,63.4,30.33,North,0,0.0,0.0,67,0.00,,,0.00,WUHU216HW,2013-06-21 09:36:00,
2013-06-21 04:41:00,74.9,63.6,30.33,North,0,0.0,0.0,68,0.00,,,0.00,WUHU216HW,2013-06-21 09:41:00,
2013-06-21 04:46:00,74.7,63.5,30.33,North,0,0.0,0.0,68,0.00,,,0.00,WUHU216HW,2013-06-21 09:46:00,
2013-06-21 04:51:00,74.7,63.5,30.32,North,0,0.0,0.0,68,0.00,,,0.00,WUHU216HW,2013-06-21 09:51:00,
2013-06-21 04:56:00,74.5,63.7,30.32,North,0,0.0,0.0,69,0.00,,,0.00,WUHU216HW,2013-06-21 09:56:00,
2013-06-21 05:01:00,74.3,63.5,30.33,North,0,0.0,0.0,69,0.00,,,0.00,WUHU216HW,2013-06-21 10:01:00,
2013-06-21 05:06:00,74.2,63.8,30.32,North,0,0.0,0.0,70,0.00,,,0.00,WUHU216HW,2013-06-21 10:06:00,
2013-06-21 05:11:00,74.2,63.8,30.32,North,0,0.0,0.0,70,0.00,,,0.00,WUHU216HW,2013-06-21 10:11:00,
2013-06-21 05:16:00,74.0,63.6,30.32,North,0,0.0,0.0,70,0.00,,,0.00,WUHU216HW,2013-06-21 10:16:00,
2013-06-21 05:21:00,73.8,63.9,30.32,North,0,0.0,0.0,71,0.00,,,0.00,WUHU216HW,2013-06-21 10:21:00,
2013-06-21 05:26:00,73.8,63.9,30.32,North,0,0.0,0.0,71,0.00,,,0.00,WUHU216HW,2013-06-21 10:26:00,
2013-06-21 05:31:00,73.6,63.7,30.33,North,0,0.0,0.0,71,0.00,,,0.00,WUHU216HW,2013-06-21 10:31:00,
2013-06-21 05:36:00,73.6,64.1,30.33,North,0,0.0,0.0,72,0.00,,,0.00,WUHU216HW,2013-06-21 10:36:00,
2013-06-21 05:41:00,73.6,64.4,30.33,North,0,0.0,0.0,73,0.00,,,0.00,WUHU216HW,2013-06-21 10:41:00,
2013-06-21 05:46:00,73.6,64.1,30.32,North,0,0.0,0.0,72,0.00,,,0.00,WUHU216HW,2013-06-21 10:46:00,
2013-06-21 05:51:00,73.8,64.3,30.32,North,0,0.0,0.0,72,0.00,,,0.00,WUHU216HW,2013-06-21 10:51:00,
2013-06-21 05:56:00,73.8,64.3,30.32,North,0,0.0,0.0,72,0.00,,,0.00,WUHU216HW,2013-06-21 10:56:00,
2013-06-21 06:01:00,74.0,64.5,30.32,North,0,0.0,0.0,72,0.00,,,0.00,WUHU216HW,2013-06-21 11:01:00,
2013-06-21 06:06:00,74.2,65.0,30.31,North,0,0.0,0.0,73,0.00,,,0.00,WUHU216HW,2013-06-21 11:06:00,
2013-06-21 06:11:00,74.3,64.8,30.31,North,0,0.0,0.0,72,0.00,,,0.00,WUHU216HW,2013-06-21 11:11:00,
2013-06-21 06:16:00,74.5,65.4,30.31,North,0,0.0,0.0,73,0.00,,,0.00,WUHU216HW,2013-06-21 11:16:00,
2013-06-21 06:21:00,74.7,65.1,30.31,North,0,0.0,0.0,72,0.00,,,0.00,WUHU216HW,2013-06-21 11:21:00,
2013-06-21 06:26:00,75.1,65.4,30.32,North,0,0.0,0.0,72,0.00,,,0.00,WUHU216HW,2013-06-21 11:26:00,
2013-06-21 06:31:00,75.2,65.6,30.32,North,0,0.0,0.0,72,0.00,,,0.00,WUHU216HW,2013-06-21 11:31:00,
2013-06-21 06:36:00,75.6,65.5,30.32,North,0,0.0,0.0,71,0.00,,,0.00,WUHU216HW,2013-06-21 11:36:00,
2013-06-21 06:41:00,76.0,65.9,30.32,North,0,0.0,0.0,71,0.00,,,0.00,WUHU216HW,2013-06-21 11:41:00,
2013-06-21 06:46:00,76.0,65.9,30.32,North,0,0.0,0.0,71,0.00,,,0.00,WUHU216HW,2013-06-21 11:46:00,
2013-06-21 06:51:00,76.1,66.1,30.33,North,0,0.0,0.0,71,0.00,,,0.00,WUHU216HW,2013-06-21 11:51:00,
2013-06-21 06:56:00,76.3,66.2,30.32,North,0,0.0,0.0,71,0.00,,,0.00,WUHU216HW,2013-06-21 11:56:00,
2013-06-21 07:01:00,76.9,66.8,30.32,North,0,0.0,0.0,71,0.00,,,0.00,WUHU216HW,2013-06-21 12:01:00,
2013-06-21 07:06:00,77.4,67.0,30.31,North,0,0.0,0.0,70,0.00,,,0.00,WUHU216HW,2013-06-21 12:06:00,
2013-06-21 07:11:00,78.1,67.2,30.31,North,0,0.0,0.0,69,0.00,,,0.00,WUHU216HW,2013-06-21 12:11:00,
2013-06-21 07:16:00,78.5,67.5,30.30,North,0,0.0,0.0,69,0.00,,,0.00,WUHU216HW,2013-06-21 12:16:00,
2013-06-21 07:21:00,78.8,67.3,30.30,North,0,0.0,0.0,68,0.00,,,0.00,WUHU216HW,2013-06-21 12:21:00,
2013-06-21 07:26:00,78.8,67.3,30.29,North,0,0.0,0.0,68,0.00,,,0.00,WUHU216HW,2013-06-21 12:26:00,
2013-06-21 07:31:00,79.0,67.5,30.30,North,0,0.0,0.0,68,0.00,,,0.00,WUHU216HW,2013-06-21 12:31:00,
2013-06-21 07:36:00,79.0,67.5,30.30,North,0,0.0,0.0,68,0.00,,,0.00,WUHU216HW,2013-06-21 12:36:00,
2013-06-21 07:41:00,78.8,67.3,30.30,North,0,0.0,0.0,68,0.00,,,0.00,WUHU216HW,2013-06-21 12:41:00,
2013-06-21 07:46:00,79.0,67.5,30.30,North,0,0.0,0.0,68,0.00,,,0.00,WUHU216HW,2013-06-21 12:46:00,
2013-06-21 07:51:00,79.0,67.5,30.29,North,0,0.0,0.0,68,0.00,,,0.00,WUHU216HW,2013-06-21 12:51:00,
2013-06-21 07:56:00,79.0,67.5,30.29,North,0,0.0,0.0,68,0.00,,,0.00,WUHU216HW,2013-06-21 12:56:00,
2013-06-21 08:01:00,79.2,67.7,30.30,North,0,0.0,0.0,68,0.00,,,0.00,WUHU216HW,2013-06-21 13:01:00,
2013-06-21 08:06:00,79.2,67.7,30.30,North,0,0.0,0.0,68,0.00,,,0.00,WUHU216HW,2013-06-21 13:06:00,
2013-06-21 08:11:00,79.2,67.7,30.30,North,0,0.0,0.0,68,0.00,,,0.00,WUHU216HW,2013-06-21 13:11:00,
2013-06-21 08:16:00,79.2,67.7,30.30,North,0,0.0,0.0,68,0.00,,,0.00,WUHU216HW,2013-06-21 13:16:00,
2013-06-21 08:21:00,79.4,67.9,30.30,North,0,0.0,0.0,68,0.00,,,0.00,WUHU216HW,2013-06-21 13:21:00,
2013-06-21 08:26:00,79.2,67.7,30.30,North,0,0.0,0.0,68,0.00,,,0.00,WUHU216HW,2013-06-21 13:26:00,
2013-06-21 08:31:00,79.4,67.9,30.31,North,0,0.0,0.0,68,0.00,,,0.00,WUHU216HW,2013-06-21 13:31:00,
2013-06-21 08:36:00,79.6,68.0,30.31,North,0,0.0,0.0,68,0.00,,,0.00,WUHU216HW,2013-06-21 13:36:00,
2013-06-21 08:41:00,79.6,68.0,30.31,North,0,0.0,0.0,68,0.00,,,0.00,WUHU216HW,2013-06-21 13:41:00,
2013-06-21 08:46:00,79.7,68.2,30.31,North,0,0.0,0.0,68,0.00,,,0.00,WUHU216HW,2013-06-21 13:46:00,
2013-06-21 08:51:00,79.9,68.4,30.31,North,0,0.0,0.0,68,0.00,,,0.00,WUHU216HW,2013-06-21 13:51:00,
2013-06-21 08:56:00,80.3,68.8,30.31,North,0,0.0,0.0,68,0.00,,,0.00,WUHU216HW,2013-06-21 13:56:00,
2013-06-21 09:01:00,80.8,69.3,30.32,North,0,0.0,0.0,68,0.00,,,0.00,WUHU216HW,2013-06-21 14:01:00,
2013-06-21 09:06:00,81.2,69.1,30.32,North,0,0.0,0.0,67,0.00,,,0.00,WUHU216HW,2013-06-21 14:06:00,
2013-06-21 09:11:00,81.5,69.5,30.33,North,0,0.0,0.0,67,0.00,,,0.00,WUHU216HW,2013-06-21 14:11:00,
2013-06-21 09:16:00,81.9,69.9,30.33,North,0,0.0,0.0,67,0.00,,,0.00,WUHU216HW,2013-06-21 14:16:00,
2013-06-21 09:21:00,82.4,70.7,30.33,North,0,0.0,0.0,68,0.00,,,0.00,WUHU216HW,2013-06-21 14:21:00,
2013-06-21 09:26:00,82.6,70.5,30.34,North,0,0.0,0.0,67,0.00,,,0.00,WUHU216HW,2013-06-21 14:26:00,
2013-06-21 09:31:00,83.0,70.8,30.34,North,0,0.0,0.0,67,0.00,,,0.00,WUHU216HW,2013-06-21 14:31:00,
2013-06-21 09:36:00,83.2,71.0,30.35,North,0,0.0,0.0,67,0.00,,,0.00,WUHU216HW,2013-06-21 14:36:00,
2013-06-21 09:41:00,83.3,71.2,30.35,North,0,0.0,0.0,67,0.00,,,0.00,WUHU216HW,2013-06-21 14:41:00,
2013-06-21 09:46:00,83.2,71.0,30.35,North,0,0.0,0.0,67,0.00,,,0.00,WUHU216HW,2013-06-21 14:46:00,
2013-06-21 09:51:00,83.0,70.8,30.35,North,0,0.0,0.0,67,0.00,,,0.00,WUHU216HW,2013-06-21 14:51:00,
2013-06-21 09:56:00,82.8,70.7,30.35,North,0,0.0,0.0,67,0.00,,,0.00,WUHU216HW,2013-06-21 14:56:00,
2013-06-21 10:01:00,82.4,69.8,30.35,North,0,0.0,0.0,66,0.00,,,0.00,WUHU216HW,2013-06-21 15:01:00,
2013-06-21 10:07:00,82.3,70.6,30.36,North,0,0.0,0.0,68,0.00,,,0.00,WUHU216HW,2013-06-21 15:07:00,
2013-06-21 10:12:00,81.7,69.7,30.36,North,0,0.0,0.0,67,0.00,,,0.00,WUHU216HW,2013-06-21 15:12:00,
2013-06-21 10:17:00,81.5,69.9,30.36,North,0,0.0,0.0,68,0.00,,,0.00,WUHU216HW,2013-06-21 15:17:00,
2013-06-21 10:22:00,81.7,70.6,30.37,North,0,0.0,0.0,69,0.00,,,0.00,WUHU216HW,2013-06-21 15:22:00,
2013-06-21 10:27:00,81.9,70.8,30.36,North,0,0.0,0.0,69,0.00,,,0.00,WUHU216HW,2013-06-21 15:27:00,
2013-06-21 10:32:00,82.3,71.0,30.37,North,0,0.0,0.0,69,0.00,,,0.00,WUHU216HW,2013-06-21 15:32:00,
2013-06-21 10:37:00,82.1,70.8,30.37,North,0,0.0,0.0,69,0.00,,,0.00,WUHU216HW,2013-06-21 15:37:00,
2013-06-21 10:42:00,82.1,71.3,30.38,North,0,0.0,0.0,70,0.00,,,0.00,WUHU216HW,2013-06-21 15:42:00,
2013-06-21 10:47:00,82.1,71.3,30.38,North,0,0.0,0.0,70,0.00,,,0.00,WUHU216HW,2013-06-21 15:47:00,
2013-06-21 10:52:00,81.4,71.1,30.39,North,0,0.0,0.0,71,0.00,,,0.00,WUHU216HW,2013-06-21 15:52:00,
2013-06-21 10:57:00,79.9,68.0,30.40,North,0,0.0,0.0,67,0.00,,,0.00,WUHU216HW,2013-06-21 15:57:00,
2013-06-21 11:02:00,78.7,66.8,30.40,North,0,0.0,0.0,67,0.00,,,0.00,WUHU216HW,2013-06-21 16:02:00,
2013-06-21 11:07:00,77.9,66.1,30.40,North,0,0.0,0.0,67,0.00,,,0.00,WUHU216HW,2013-06-21 16:07:00,
2013-06-21 11:12:00,77.0,65.7,30.41,North,0,0.0,0.0,68,0.00,,,0.00,WUHU216HW,2013-06-21 16:12:00,
2013-06-21 11:17:00,76.5,65.2,30.41,North,0,0.0,0.0,68,0.00,,,0.00,WUHU216HW,2013-06-21 16:17:00,
2013-06-21 11:22:00,76.3,65.0,30.41,North,0,0.0,0.0,68,0.00,,,0.00,WUHU216HW,2013-06-21 16:22:00,
2013-06-21 11:27:00,76.0,63.7,30.42,North,0,0.0,0.0,66,0.00,,,0.00,WUHU216HW,2013-06-21 16:27:00,
2013-06-21 11:32:00,75.8,63.6,30.42,North,0,0.0,0.0,66,0.00,,,0.00,WUHU216HW,2013-06-21 16:32:00,
2013-06-21 11:37:00,75.4,63.3,30.42,North,0,0.0,0.0,66,0.00,,,0.00,WUHU216HW,2013-06-21 16:37:00,
2013-06-21 11:42:00,75.1,63.4,30.42,North,0,0.0,0.0,67,0.00,,,0.00,WUHU216HW,2013-06-21 16:42:00,
2013-06-21 11:47:00,74.7,63.0,30.42,North,0,0.0,0.0,67,0.00,,,0.00,WUHU216HW,2013-06-21 16:47:00,
2013-06-21 11:52:00,74.3,63.1,30.42,North,0,0.0,0.0,68,0.00,,,0.00,WUHU216HW,2013-06-21 16:52:00,
2013-06-21 11:57:00,74.2,62.9,30.43,North,0,0.0,0.0,68,0.00,,,0.00,WUHU216HW,2013-06-21 16:57:00,
2013-06-21 12:02:00,73.8,63.6,30.44,North,0,0.0,0.0,70,0.00,,,0.00,WUHU216HW,2013-06-21 17:02:00,
2013-06-21 12:08:00,72.5,63.5,30.43,North,0,0.0,0.0,73,0.02,,,0.01,WUHU216HW,2013-06-21 17:08:00,
2013-06-21 12:13:00,70.7,62.7,30.45,North,0,0.0,0.0,76,0.02,,,0.01,WUHU216HW,2013-06-21 17:13:00,
2013-06-21 12:18:00,69.8,63.0,30.46,North,0,0.0,0.0,79,0.03,,,0.03,WUHU216HW,2013-06-21 17:18:00,
2013-06-21 12:23:00,69.3,62.9,30.48,North,0,0.0,0.0,80,0.03,,,0.03,WUHU216HW,2013-06-21 17:23:00,
2013-06-21 12:28:00,68.8,63.4,30.45,North,0,0.0,0.0,83,0.12,,,0.10,WUHU216HW,2013-06-21 17:28:00,
2013-06-21 12:34:00,67.9,63.6,30.44,North,0,0.0,0.0,86,0.13,,,0.13,WUHU216HW,2013-06-21 17:34:00,
2013-06-21 12:39:00,67.3,63.3,30.44,North,0,0.0,0.0,87,0.13,,,0.13,WUHU216HW,2013-06-21 17:39:00,
2013-06-21 12:44:00,67.1,63.5,30.43,North,0,0.0,0.0,88,0.13,,,0.13,WUHU216HW,2013-06-21 17:44:00,
2013-06-21 12:45:00,67.0,63.3,30.43,North,0,0.0,0.0,88,0.13,,,0.13,WUHU216HW,2013-06-21 17:45:00,
2013-06-21 12:46:00,67.0,63.3,30.43,North,0,0.0,0.0,88,0.13,,,0.13,WUHU216HW,2013-06-21 17:46:00,
2013-06-21 12:51:00,67.0,63.5,30.42,North,0,0.0,0.0,89,0.13,,,0.13,WUHU216HW,2013-06-21 17:51:00,
2013-06-21 12:56:00,67.0,63.5,30.42,North,0,0.0,0.0,89,0.13,,,0.13,WUHU216HW,2013-06-21 17:56:00,
2013-06-21 13:01:00,67.0,63.9,30.41,North,0,0.0,0.0,90,0.12,,,0.13,WUHU216HW,2013-06-21 18:01:00,
2013-06-21 13:06:00,67.0,63.9,30.38,North,0,0.0,0.0,90,0.11,,,0.13,WUHU216HW,2013-06-21 18:06:00,
2013-06-21 13:12:00,67.0,63.9,30.37,North,0,0.0,0.0,90,0.11,,,0.13,WUHU216HW,2013-06-21 18:12:00,
2013-06-21 13:17:00,67.0,63.5,30.36,North,0,0.0,0.0,89,0.10,,,0.13,WUHU216HW,2013-06-21 18:17:00,
2013-06-21 13:22:00,67.0,63.5,30.37,North,0,0.0,0.0,89,0.08,,,0.13,WUHU216HW,2013-06-21 18:22:00,
2013-06-21 13:23:00,67.1,63.5,30.37,North,0,0.0,0.0,88,0.08,,,0.13,WUHU216HW,2013-06-21 18:23:00,
2013-06-21 13:24:00,67.1,63.7,30.37,North,0,0.0,0.0,89,0.01,,,0.13,WUHU216HW,2013-06-21 18:24:00,
2013-06-21 13:29:00,67.1,63.5,30.36,North,0,0.0,0.0,88,0.00,,,0.13,WUHU216HW,2013-06-21 18:29:00,
2013-06-21 13:34:00,67.3,63.6,30.36,North,0,0.0,0.0,88,0.00,,,0.13,WUHU216HW,2013-06-21 18:34:00,
2013-06-21 13:39:00,67.5,63.8,30.36,North,0,0.0,0.0,88,0.00,,,0.13,WUHU216HW,2013-06-21 18:39:00,
2013-06-21 13:44:00,67.5,63.8,30.35,North,0,0.0,0.0,88,0.00,,,0.13,WUHU216HW,2013-06-21 18:44:00,
2013-06-21 13:45:00,67.5,63.8,30.34,North,0,0.0,0.0,88,0.00,,,0.13,WUHU216HW,2013-06-21 18:45:00,
2013-06-21 13:46:00,67.5,63.8,30.34,North,0,0.0,0.0,88,0.00,,,0.13,WUHU216HW,2013-06-21 18:46:00,
2013-06-21 13:51:00,67.5,63.8,30.34,North,0,0.0,0.0,88,0.00,,,0.13,WUHU216HW,2013-06-21 18:51:00,
2013-06-21 13:56:00,67.7,64.0,30.34,North,0,0.0,0.0,88,0.00,,,0.13,WUHU216HW,2013-06-21 18:56:00,
2013-06-21 14:01:00,68.0,64.4,30.33,North,0,0.0,0.0,88,0.00,,,0.13,WUHU216HW,2013-06-21 19:01:00,
2013-06-21 14:06:00,68.0,64.0,30.33,North,0,0.0,0.0,87,0.00,,,0.13,WUHU216HW,2013-06-21 19:06:00,
2013-06-21 14:11:00,68.2,64.5,30.31,North,0,0.0,0.0,88,0.00,,,0.13,WUHU216HW,2013-06-21 19:11:00,
2013-06-21 14:16:00,68.6,64.5,30.31,North,0,0.0,0.0,87,0.00,,,0.13,WUHU216HW,2013-06-21 19:16:00,
2013-06-21 14:20:00,68.8,64.7,30.31,North,0,0.0,0.0,87,0.00,,,0.13,WUHU216HW,2013-06-21 19:20:00,
2013-06-21 14:25:00,69.3,64.9,30.31,North,0,0.0,0.0,86,0.00,,,0.13,WUHU216HW,2013-06-21 19:25:00,
2013-06-21 14:30:00,69.7,64.9,30.30,North,0,0.0,0.0,85,0.00,,,0.13,WUHU216HW,2013-06-21 19:30:00,
2013-06-21 14:35:00,70.2,65.1,30.30,North,0,0.0,0.0,84,0.00,,,0.13,WUHU216HW,2013-06-21 19:35:00,
2013-06-21 14:40:00,70.6,65.4,30.30,North,0,0.0,0.0,84,0.00,,,0.13,WUHU216HW,2013-06-21 19:40:00,
2013-06-21 14:42:00,70.6,65.4,30.30,North,0,0.0,0.0,84,0.00,,,0.13,WUHU216HW,2013-06-21 19:42:00,
2013-06-21 14:43:00,70.6,65.4,30.30,North,0,0.0,0.0,84,0.00,,,0.13,WUHU216HW,2013-06-21 19:43:00,
2013-06-21 14:48:00,70.9,65.8,30.29,North,0,0.0,0.0,84,0.00,,,0.13,WUHU216HW,2013-06-21 19:48:00,
2013-06-21 14:53:00,71.3,65.8,30.28,North,0,0.0,0.0,83,0.00,,,0.13,WUHU216HW,2013-06-21 19:53:00,
2013-06-21 14:58:00,71.6,65.9,30.27,North,0,0.0,0.0,82,0.00,,,0.13,WUHU216HW,2013-06-21 19:58:00,
2013-06-21 15:03:00,71.8,65.7,30.27,North,0,0.0,0.0,81,0.00,,,0.13,WUHU216HW,2013-06-21 20:03:00,
2013-06-21 15:04:00,71.8,65.7,30.27,North,0,0.0,0.0,81,0.00,,,0.13,WUHU216HW,2013-06-21 20:04:00,
2013-06-21 15:09:00,72.4,65.9,30.27,North,0,0.0,0.0,80,0.00,,,0.13,WUHU216HW,2013-06-21 20:09:00,
2013-06-21 15:11:00,72.4,65.9,30.27,North,0,0.0,0.0,80,0.00,,,0.13,WUHU216HW,2013-06-21 20:11:00,
2013-06-21 15:13:00,72.5,66.1,30.26,North,0,0.0,0.0,80,0.00,,,0.13,WUHU216HW,2013-06-21 20:13:00,
2013-06-21 15:18:00,72.9,66.8,30.26,North,0,0.0,0.0,81,0.00,,,0.13,WUHU216HW,2013-06-21 20:18:00,
2013-06-21 15:23:00,73.1,66.6,30.26,North,0,0.0,0.0,80,0.00,,,0.13,WUHU216HW,2013-06-21 20:23:00,
2013-06-21 15:28:00,73.4,67.0,30.26,North,0,0.0,0.0,80,0.00,,,0.13,WUHU216HW,2013-06-21 20:28:00,
2013-06-21 15:33:00,73.8,66.6,30.26,North,0,0.0,0.0,78,0.00,,,0.13,WUHU216HW,2013-06-21 20:33:00,
2013-06-21 15:38:00,74.0,66.7,30.25,North,0,0.0,0.0,78,0.00,,,0.13,WUHU216HW,2013-06-21 20:38:00,
2013-06-21 15:43:00,74.0,66.0,30.25,North,0,0.0,0.0,76,0.00,,,0.13,WUHU216HW,2013-06-21 20:43:00,
2013-06-21 15:48:00,74.2,66.2,30.26,North,0,0.0,0.0,76,0.00,,,0.13,WUHU216HW,2013-06-21 20:48:00,
2013-06-21 15:53:00,74.3,65.9,30.26,North,0,0.0,0.0,75,0.00,,,0.13,WUHU216HW,2013-06-21 20:53:00,
2013-06-21 15:58:00,74.3,65.9,30.26,North,0,0.0,0.0,75,0.00,,,0.13,WUHU216HW,2013-06-21 20:58:00,
2013-06-21 16:03:00,74.5,66.1,30.26,North,0,0.0,0.0,75,0.00,,,0.13,WUHU216HW,2013-06-21 21:03:00,
2013-06-21 16:04:00,74.5,66.1,30.26,North,0,0.0,0.0,75,0.00,,,0.13,WUHU216HW,2013-06-21 21:04:00,
2013-06-21 16:09:00,74.5,66.1,30.26,North,0,0.0,0.0,75,0.00,,,0.13,WUHU216HW,2013-06-21 21:09:00,
2013-06-21 16:14:00,74.5,66.1,30.26,North,0,0.0,0.0,75,0.00,,,0.13,WUHU216HW,2013-06-21 21:14:00,
2013-06-21 16:19:00,74.5,66.1,30.26,North,0,0.0,0.0,75,0.00,,,0.13,WUHU216HW,2013-06-21 21:19:00,
2013-06-21 16:24:00,74.7,66.2,30.26,North,0,0.0,0.0,75,0.00,,,0.13,WUHU216HW,2013-06-21 21:24:00,
2013-06-21 16:29:00,74.9,66.4,30.27,North,0,0.0,0.0,75,0.00,,,0.13,WUHU216HW,2013-06-21 21:29:00,
2013-06-21 16:34:00,74.9,66.4,30.27,North,0,0.0,0.0,75,0.00,,,0.13,WUHU216HW,2013-06-21 21:34:00,
2013-06-21 16:39:00,75.1,66.6,30.27,North,0,0.0,0.0,75,0.00,,,0.13,WUHU216HW,2013-06-21 21:39:00,
2013-06-21 16:44:00,75.1,66.3,30.28,North,0,0.0,0.0,74,0.00,,,0.13,WUHU216HW,2013-06-21 21:44:00,
2013-06-21 16:49:00,75.2,66.4,30.28,North,0,0.0,0.0,74,0.00,,,0.13,WUHU216HW,2013-06-21 21:49:00,
2013-06-21 16:54:00,75.2,66.0,30.28,North,0,0.0,0.0,73,0.00,,,0.13,WUHU216HW,2013-06-21 21:54:00,
2013-06-21 16:59:00,75.4,65.3,30.29,North,0,0.0,0.0,71,0.00,,,0.13,WUHU216HW,2013-06-21 21:59:00,
2013-06-21 17:04:00,75.4,65.8,30.28,North,0,0.0,0.0,72,0.00,,,0.13,WUHU216HW,2013-06-21 22:04:00,
2013-06-21 17:09:00,75.4,65.8,30.28,North,0,0.0,0.0,72,0.00,,,0.13,WUHU216HW,2013-06-21 22:09:00,
2013-06-21 17:14:00,75.6,66.0,30.27,North,0,0.0,0.0,72,0.00,,,0.13,WUHU216HW,2013-06-21 22:14:00,
2013-06-21 17:19:00,75.6,66.0,30.27,North,0,0.0,0.0,72,0.00,,,0.13,WUHU216HW,2013-06-21 22:19:00,
2013-06-21 17:24:00,75.6,66.0,30.26,North,0,0.0,0.0,72,0.00,,,0.13,WUHU216HW,2013-06-21 22:24:00,
2013-06-21 17:29:00,75.6,66.0,30.26,North,0,0.0,0.0,72,0.00,,,0.13,WUHU216HW,2013-06-21 22:29:00,
2013-06-21 17:34:00,75.6,66.3,30.26,North,0,0.0,0.0,73,0.00,,,0.13,WUHU216HW,2013-06-21 22:34:00,
2013-06-21 17:39:00,76.0,66.7,30.25,North,0,0.0,0.0,73,0.00,,,0.13,WUHU216HW,2013-06-21 22:39:00,
2013-06-21 17:44:00,76.0,66.3,30.24,North,0,0.0,0.0,72,0.00,,,0.13,WUHU216HW,2013-06-21 22:44:00,
2013-06-21 17:49:00,76.1,66.5,30.24,North,0,0.0,0.0,72,0.00,,,0.13,WUHU216HW,2013-06-21 22:49:00,
2013-06-21 17:54:00,76.3,66.7,30.23,North,0,0.0,0.0,72,0.00,,,0.13,WUHU216HW,2013-06-21 22:54:00,
2013-06-21 17:59:00,76.3,66.2,30.23,North,0,0.0,0.0,71,0.00,,,0.13,WUHU216HW,2013-06-21 22:59:00,
2013-06-21 18:04:00,76.7,67.0,30.23,North,0,0.0,0.0,72,0.00,,,0.13,WUHU216HW,2013-06-21 23:04:00,
2013-06-21 18:09:00,76.7,66.6,30.23,North,0,0.0,0.0,71,0.00,,,0.13,WUHU216HW,2013-06-21 23:09:00,
2013-06-21 18:14:00,76.7,66.6,30.22,North,0,0.0,0.0,71,0.00,,,0.13,WUHU216HW,2013-06-21 23:14:00,
2013-06-21 18:19:00,76.7,66.6,30.22,North,0,0.0,0.0,71,0.00,,,0.13,WUHU216HW,2013-06-21 23:19:00,
2013-06-21 18:24:00,76.7,66.6,30.22,North,0,0.0,0.0,71,0.00,,,0.13,WUHU216HW,2013-06-21 23:24:00,
2013-06-21 18:29:00,76.7,66.6,30.22,North,0,0.0,0.0,71,0.00,,,0.13,WUHU216HW,2013-06-21 23:29:00,
2013-06-21 18:34:00,76.9,66.8,30.23,North,0,0.0,0.0,71,0.00,,,0.13,WUHU216HW,2013-06-21 23:34:00,
2013-06-21 18:39:00,76.9,67.1,30.23,North,0,0.0,0.0,72,0.00,,,0.13,WUHU216HW,2013-06-21 23:39:00,
2013-06-21 18:44:00,76.9,67.1,30.23,North,0,0.0,0.0,72,0.00,,,0.13,WUHU216HW,2013-06-21 23:44:00,
2013-06-21 18:49:00,77.0,67.3,30.23,North,0,0.0,0.0,72,0.00,,,0.13,WUHU216HW,2013-06-21 23:49:00,
2013-06-21 18:54:00,76.9,67.6,30.24,North,0,0.0,0.0,73,0.00,,,0.13,WUHU216HW,2013-06-21 23:54:00,
2013-06-21 18:59:00,76.9,67.6,30.24,North,0,0.0,0.0,73,0.00,,,0.13,WUHU216HW,2013-06-21 23:59:00,
2013-06-21 19:04:00,76.7,67.4,30.24,North,0,0.0,0.0,73,0.00,,,0.13,WUHU216HW,2013-06-22 00:04:00,
2013-06-21 19:09:00,76.7,67.8,30.24,North,0,0.0,0.0,74,0.00,,,0.13,WUHU216HW,2013-06-22 00:09:00,
2013-06-21 19:14:00,76.7,68.1,30.23,North,0,0.0,0.0,75,0.00,,,0.13,WUHU216HW,2013-06-22 00:14:00,
2013-06-21 19:19:00,76.7,68.1,30.23,North,0,0.0,0.0,75,0.00,,,0.13,WUHU216HW,2013-06-22 00:19:00,
2013-06-21 19:24:00,76.3,67.8,30.24,North,0,0.0,0.0,75,0.00,,,0.13,WUHU216HW,2013-06-22 00:24:00,
2013-06-21 19:29:00,76.5,68.0,30.24,North,0,0.0,0.0,75,0.00,,,0.13,WUHU216HW,2013-06-22 00:29:00,
2013-06-21 19:34:00,76.3,68.2,30.24,North,0,0.0,0.0,76,0.00,,,0.13,WUHU216HW,2013-06-22 00:34:00,
2013-06-21 19:39:00,76.3,68.6,30.24,North,0,0.0,0.0,77,0.00,,,0.13,WUHU216HW,2013-06-22 00:39:00,
2013-06-21 19:44:00,76.3,68.6,30.24,North,0,0.0,0.0,77,0.00,,,0.13,WUHU216HW,2013-06-22 00:44:00,
2013-06-21 19:49:00,76.3,68.9,30.24,North,0,0.0,0.0,78,0.00,,,0.13,WUHU216HW,2013-06-22 00:49:00,
2013-06-21 19:54:00,76.3,68.9,30.25,North,0,0.0,0.0,78,0.00,,,0.13,WUHU216HW,2013-06-22 00:54:00,
2013-06-21 19:59:00,76.1,68.8,30.25,North,0,0.0,0.0,78,0.00,,,0.13,WUHU216HW,2013-06-22 00:59:00,
2013-06-21 20:04:00,76.1,68.4,30.26,North,0,0.0,0.0,77,0.00,,,0.13,WUHU216HW,2013-06-22 01:04:00,
2013-06-21 20:09:00,76.0,68.7,30.26,North,0,0.0,0.0,78,0.00,,,0.13,WUHU216HW,2013-06-22 01:09:00,
2013-06-21 20:14:00,76.0,68.7,30.26,North,0,0.0,0.0,78,0.00,,,0.13,WUHU216HW,2013-06-22 01:14:00,
2013-06-21 20:19:00,76.0,68.2,30.26,North,0,0.0,0.0,77,0.00,,,0.13,WUHU216HW,2013-06-22 01:19:00,
2013-06-21 20:24:00,75.8,68.5,30.26,North,0,0.0,0.0,78,0.00,,,0.13,WUHU216HW,2013-06-22 01:24:00,
2013-06-21 20:29:00,75.6,68.3,30.26,North,0,0.0,0.0,78,0.00,,,0.13,WUHU216HW,2013-06-22 01:29:00,
2013-06-21 20:34:00,75.4,67.8,30.27,North,0,0.0,0.0,77,0.00,,,0.13,WUHU216HW,2013-06-22 01:34:00,
2013-06-21 20:39:00,75.4,68.1,30.27,North,0,0.0,0.0,78,0.00,,,0.13,WUHU216HW,2013-06-22 01:39:00,
2013-06-21 20:44:00,75.2,68.0,30.27,North,0,0.0,0.0,78,0.00,,,0.13,WUHU216HW,2013-06-22 01:44:00,
2013-06-21 20:49:00,75.2,68.0,30.28,North,0,0.0,0.0,78,0.00,,,0.13,WUHU216HW,2013-06-22 01:49:00,
2013-06-21 20:54:00,75.1,67.8,30.28,North,0,0.0,0.0,78,0.00,,,0.13,WUHU216HW,2013-06-22 01:54:00,
2013-06-21 20:59:00,74.9,67.6,30.28,North,0,0.0,0.0,78,0.00,,,0.13,WUHU216HW,2013-06-22 01:59:00,
2013-06-21 21:04:00,74.7,67.4,30.28,North,0,0.0,0.0,78,0.00,,,0.13,WUHU216HW,2013-06-22 02:04:00,
2013-06-21 21:09:00,74.7,67.4,30.29,North,0,0.0,0.0,78,0.00,,,0.13,WUHU216HW,2013-06-22 02:09:00,
2013-06-21 21:14:00,74.5,67.2,30.29,North,0,0.0,0.0,78,0.00,,,0.13,WUHU216HW,2013-06-22 02:14:00,
2013-06-21 21:19:00,74.3,67.5,30.30,North,0,0.0,0.0,79,0.00,,,0.13,WUHU216HW,2013-06-22 02:19:00,
2013-06-21 21:24:00,74.2,67.7,30.30,North,0,0.0,0.0,80,0.00,,,0.13,WUHU216HW,2013-06-22 02:24:00,
2013-06-21 21:29:00,73.6,67.5,30.30,North,0,0.0,0.0,81,0.00,,,0.13,WUHU216HW,2013-06-22 02:29:00,
2013-06-21 21:34:00,73.4,67.3,30.30,North,0,0.0,0.0,81,0.00,,,0.13,WUHU216HW,2013-06-22 02:34:00,
2013-06-21 21:39:00,73.4,67.3,30.30,North,0,0.0,0.0,81,0.00,,,0.13,WUHU216HW,2013-06-22 02:39:00,
2013-06-21 21:44:00,73.4,67.7,30.30,North,0,0.0,0.0,82,0.00,,,0.13,WUHU216HW,2013-06-22 02:44:00,
2013-06-21 21:49:00,73.4,67.7,30.31,North,0,0.0,0.0,82,0.00,,,0.13,WUHU216HW,2013-06-22 02:49:00,
2013-06-21 21:54:00,73.4,68.0,30.32,North,0,0.0,0.0,83,0.00,,,0.13,WUHU216HW,2013-06-22 02:54:00,
2013-06-21 21:59:00,73.4,67.7,30.32,North,0,0.0,0.0,82,0.00,,,0.13,WUHU216HW,2013-06-22 02:59:00,
2013-06-21 22:04:00,73.4,67.7,30.32,North,0,0.0,0.0,82,0.00,,,0.13,WUHU216HW,2013-06-22 03:04:00,
2013-06-21 22:09:00,73.8,68.1,30.32,North,0,0.0,0.0,82,0.00,,,0.13,WUHU216HW,2013-06-22 03:09:00,
2013-06-21 22:14:00,74.0,67.9,30.32,North,0,0.0,0.0,81,0.00,,,0.13,WUHU216HW,2013-06-22 03:14:00,
2013-06-21 22:19:00,74.0,67.9,30.31,North,0,0.0,0.0,81,0.00,,,0.13,WUHU216HW,2013-06-22 03:19:00,
2013-06-21 22:24:00,74.2,68.1,30.31,North,0,0.0,0.0,81,0.00,,,0.13,WUHU216HW,2013-06-22 03:24:00,
2013-06-21 22:29:00,74.2,68.1,30.31,North,0,0.0,0.0,81,0.00,,,0.13,WUHU216HW,2013-06-22 03:29:00,
2013-06-21 22:34:00,73.8,67.7,30.31,North,0,0.0,0.0,81,0.00,,,0.13,WUHU216HW,2013-06-22 03:34:00,
2013-06-21 22:39:00,73.6,67.5,30.30,North,0,0.0,0.0,81,0.00,,,0.13,WUHU216HW,2013-06-22 03:39:00,
2013-06-21 22:44:00,73.4,67.3,30.30,North,0,0.0,0.0,81,0.00,,,0.13,WUHU216HW,2013-06-22 03:44:00,
2013-06-21 22:49:00,73.1,67.3,30.30,North,0,0.0,0.0,82,0.00,,,0.13,WUHU216HW,2013-06-22 03:49:00,
2013-06-21 22:54:00,73.1,67.3,30.30,North,0,0.0,0.0,82,0.00,,,0.13,WUHU216HW,2013-06-22 03:54:00,
2013-06-21 22:59:00,73.1,67.6,30.30,North,0,0.0,0.0,83,0.00,,,0.13,WUHU216HW,2013-06-22 03:59:00,
2013-06-21 23:01:00,73.3,67.8,30.30,North,0,0.0,0.0,83,0.00,,,0.13,WUHU216HW,2013-06-22 04:01:00,
2013-06-21 23:06:00,73.4,68.0,30.31,North,0,0.0,0.0,83,0.00,,,0.13,WUHU216HW,2013-06-22 04:06:00,
2013-06-21 23:11:00,73.8,68.1,30.31,North,0,0.0,0.0,82,0.00,,,0.13,WUHU216HW,2013-06-22 04:11:00,
2013-06-21 23:16:00,74.0,68.5,30.31,North,0,0.0,0.0,83,0.00,,,0.13,WUHU216HW,2013-06-22 04:16:00,
2013-06-21 23:21:00,74.2,68.4,30.31,North,0,0.0,0.0,82,0.00,,,0.13,WUHU216HW,2013-06-22 04:21:00,
2013-06-21 23:26:00,74.3,68.6,30.31,North,0,0.0,0.0,82,0.00,,,0.13,WUHU216HW,2013-06-22 04:26:00,
2013-06-21 23:31:00,74.2,68.4,30.30,North,0,0.0,0.0,82,0.00,,,0.13,WUHU216HW,2013-06-22 04:31:00,
2013-06-21 23:36:00,74.2,68.4,30.30,North,0,0.0,0.0,82,0.00,,,0.13,WUHU216HW,2013-06-22 04:36:00,
2013-06-21 23:41:00,74.2,68.7,30.29,North,0,0.0,0.0,83,0.00,,,0.13,WUHU216HW,2013-06-22 04:41:00,
2013-06-21 23:46:00,74.3,68.6,30.28,North,0,0.0,0.0,82,0.00,,,0.13,WUHU216HW,2013-06-22 04:46:00,
2013-06-21 23:51:00,74.5,68.8,30.28,North,0,0.0,0.0,82,0.00,,,0.13,WUHU216HW,2013-06-22 04:51:00,
2013-06-21 23:56:00,74.9,69.1,30.27,North,0,0.0,0.0,82,0.00,,,0.13,WUHU216HW,2013-06-22 04:56:00,